weather.gov     
National Weather Service

Regional Weather Roundup
NWS Homepage
This page is being discontinued on March 12, 2014.
The same data is available at this site. Please update your bookmarks.
Thank you, and we apologize for the inconvenience.
Please send an email to SR-SRH.Webmaster@noaa.gov with any concerns.


Current Version
Previous Version:    01  02  03  04  05  06  07  08  09  10  11  12  13  14  15  16  17  18  19  20  21  22  23  24  25  26  
[Printable]
749
ASUS42 KKEY 250910
RWRKEY

FLORIDA REGIONAL WEATHER ROUNDUP FOR THE FLORIDA KEYS
NATIONAL WEATHER SERVICE KEY WEST FLORIDA
500 AM EDT FRI APR 25 2014

...SOUTH FLORIDA AND THE KEYS...

CITY           SKY/WX    TMP DP  RH WIND       PRES   REMARKS
FORT MYERS     CLEAR     65  64  97 CALM      29.96R
SW REGIONAL AP CLEAR     65  63  93 CALM      29.97R FOG
NAPLES         CLEAR     67  65  93 CALM      29.96R
MIAMI          PTCLDY    72  67  84 CALM      29.96R
WEST KENDALL   PTCLDY    69  66  90 N5        29.96R
HOMESTEAD      CLEAR     70  63  76 N6        29.95R
MARATHON       CLEAR     74  69  85 CALM      29.94R
BOCA CHICA NAS CLEAR     75  70  84 E3        29.94R
KEY WEST INTL  CLEAR     76  70  82 NE3       29.94S

...INTERNATIONAL WEATHER...

CITY           SKY/WX    TMP DP  RH WIND       PRES   REMARKS
NASSAU BAHAMAS PTCLDY    77  72  83 CALM      29.96S
CANCUN MEXICO  PTCLDY    77  73  88 SE6       29.89F
COZUMEL MEXICO CLEAR     68  68 100 CALM      29.89F

ADJACENT COASTAL WATERS...

STATION/POSITION TIME  SKY/WX   TEMP    WIND        PRES    WAVE
                                AIR SEA DIR/SP/G            HT/PER
                 (UTC)          (F)     (DEG/KT/KT) (MB)    (FT/S)
PULASKI SHOAL LI NOT AVBL
SAND KEY         NOT AVBL
SOMBRERO KEY     0900            77      90/  4/  4 1014.7R
LONG KEY         0900            78 81  100/  3/  3 1014.7R
MOLASSES REEF    0900            77 79   40/  4/  5 1014.1R
FOWEY ROCKS      0900            76 78  330/  7/  8 1014.3R
Buoy 42080       NOT AVBL

$$




U.S. Dept. of Commerce
NOAA National Weather Service
1325 East West Highway
Silver Spring, MD 20910
E-mail: w-nws.webmaster@noaa.gov
Page last modified: May 16, 2007
NATIONAL WEATHER SERVICE: for Safety, for Work, for Fun - FOR LIFE